This is the latest recevied weather packets stored in our database for station/object KO4ZGL-13. If no packets are shown the sender has not sent any weather packets the latest 10 day(s).
| Time | Temp. | Humidity | Pressure | Rain* | Wind** | Luminosity | Snow |
|---|---|---|---|---|---|---|---|
| 1788390201 | 31.11° C | 80% | 1016.6 hPa | 0 mm | - | 24 W/m² | - |
| 1788389896 | 31.11° C | 79% | 1016.6 hPa | 0 mm | - | 28 W/m² | - |
| 1788389592 | 31.67° C | 79% | 1016.5 hPa | 0 mm | - | 30 W/m² | - |
| 1788389290 | 31.11° C | 79% | 1016.8 hPa | 0 mm | - | 34 W/m² | - |
| 1788388985 | 31.67° C | 79% | 1016.5 hPa | 0 mm | - | 37 W/m² | - |
| 1788388681 | 32.22° C | 78% | 1016.7 hPa | 0 mm | - | 40 W/m² | - |
| 1788388376 | 31.67° C | 77% | 1016.7 hPa | 0 mm | - | 44 W/m² | - |
| 1788388074 | 32.22° C | 77% | 1016.7 hPa | 0 mm | - | 48 W/m² | - |
| 1788387768 | 32.22° C | 77% | 1016.8 hPa | 0 mm | - | 50 W/m² | - |
| 1788387463 | 32.78° C | 77% | 1016.7 hPa | 0 mm | - | 57 W/m² | - |
| 1788387162 | 33.33° C | 76% | 1016.7 hPa | 0 mm | - | 59 W/m² | - |
| 1788386858 | 34.44° C | 72% | 1016.7 hPa | 0 mm | - | 138 W/m² | - |
| 1788386558 | 33.89° C | 74% | 1016.7 hPa | 0 mm | - | 169 W/m² | - |
| 1788386253 | 33.89° C | 73% | 1016.7 hPa | 0 mm | - | 162 W/m² | - |
| 1788385949 | 33.89° C | 71% | 1016.7 hPa | 0 mm | - | 72 W/m² | - |
| 1788385644 | 33.89° C | 70% | 1017 hPa | 0 mm | - | 207 W/m² | - |
| 1788385343 | 33.89° C | 70% | 1017 hPa | 0 mm | - | 211 W/m² | - |
| 1788385039 | 33.89° C | 70% | 1017 hPa | 0 mm | - | 234 W/m² | - |
| 1788384739 | 33.33° C | 70% | 1017 hPa | 0 mm | - | 256 W/m² | - |
| 1788384438 | 33.33° C | 71% | 1017 hPa | 0 mm | - | 271 W/m² | - |
| 1788384135 | 33.89° C | 69% | 1017 hPa | 0 mm | - | 117 W/m² | - |
| 1788383831 | 33.89° C | 70% | 1017.1 hPa | 0 mm | - | 290 W/m² | - |
| 1788383526 | 33.89° C | 70% | 1017.2 hPa | 0 mm | - | 140 W/m² | - |
| 1788383220 | 35.56° C | 68% | 1017.2 hPa | 0 mm | - | 140 W/m² | - |
| 1788382915 | 35.56° C | 64% | 1017 hPa | 0 mm | - | 349 W/m² | - |
* Rain latest hour (hover to see other rain measurements)
** Current wind speed in m/s (hover to see current wind gust speed)